TimeAST,TemperatureF,Dew PointF,Humidity,Sea Level PressureIn,VisibilityMPH,Wind Direction,Wind SpeedMPH,Gust SpeedMPH,PrecipitationIn,Events,Conditions,WindDirDegrees,DateUTC
12:00 AM,78.8,71.6,78,30.01,-9999.0,North,3.5,-,N/A,,Clear,360,2012-11-10 21:00:00
12:30 AM,78.8,71.6,78,29.98,-9999.0,North,3.5,-,N/A,,Clear,10,2012-11-10 21:30:00
1:00 AM,78.8,71.6,78,29.98,-9999.0,North,4.6,-,N/A,,Clear,360,2012-11-10 22:00:00
1:30 AM,78.8,71.6,78,29.98,-9999.0,North,3.5,-,N/A,,Clear,360,2012-11-10 22:30:00
2:00 AM,78.8,71.6,78,29.98,-9999.0,North,3.5,-,N/A,,Clear,10,2012-11-10 23:00:00
2:30 AM,80.6,71.6,74,29.98,-9999.0,North,3.5,-,N/A,,Clear,10,2012-11-10 23:30:00
3:00 AM,80,72,71,29.99,6,NE,3.5,,,,Scattered Clouds,40,2012-11-11 00:00:00
3:00 AM,78.8,71.6,78,29.98,-9999.0,NE,3.5,-,N/A,,Clear,40,2012-11-11 00:00:00
3:30 AM,78.8,71.6,78,29.98,-9999.0,Variable,2.3,-,N/A,,Clear,0,2012-11-11 00:30:00
4:00 AM,77.0,71.6,83,29.98,-9999.0,Calm,Calm,-,N/A,,Clear,0,2012-11-11 01:00:00
4:30 AM,77.0,69.8,78,29.98,5.6,Variable,2.3,-,N/A,,Unknown,0,2012-11-11 01:30:00
5:00 AM,77.0,69.8,78,29.98,5.0,SW,3.5,-,N/A,,Unknown,220,2012-11-11 02:00:00
5:30 AM,77.0,69.8,78,30.01,5.0,Variable,2.3,-,N/A,,Unknown,0,2012-11-11 02:30:00
6:00 AM,77.0,69.8,78,30.01,4.3,Variable,1.2,-,N/A,,Unknown,0,2012-11-11 03:00:00
6:30 AM,78.8,69.8,74,30.01,5.0,Variable,2.3,-,N/A,,Unknown,0,2012-11-11 03:30:00
7:00 AM,80.6,71.6,74,30.01,5.0,Variable,2.3,-,N/A,,Unknown,0,2012-11-11 04:00:00
7:30 AM,82.4,71.6,70,30.01,5.0,SW,4.6,-,N/A,,Unknown,230,2012-11-11 04:30:00
8:00 AM,82.4,71.6,70,30.04,5.0,SSW,4.6,-,N/A,,Unknown,210,2012-11-11 05:00:00
8:30 AM,84.2,71.6,66,30.04,5.0,SSW,4.6,-,N/A,,Unknown,200,2012-11-11 05:30:00
9:00 AM,85,72,58,30.05,5,South,6.9,,,,Scattered Clouds,190,2012-11-11 06:00:00
9:00 AM,86.0,71.6,62,30.04,5.0,South,6.9,-,N/A,,Unknown,190,2012-11-11 06:00:00
9:30 AM,87.8,69.8,55,30.04,-9999.0,SSW,4.6,-,N/A,,Clear,200,2012-11-11 06:30:00
10:00 AM,89.6,68.0,49,30.04,-9999.0,WSW,3.5,-,N/A,,Clear,240,2012-11-11 07:00:00
10:30 AM,89.6,64.4,43,30.01,-9999.0,Variable,1.2,-,N/A,,Clear,0,2012-11-11 07:30:00
11:00 AM,91.4,64.4,41,30.01,-9999.0,SW,3.5,-,N/A,,Clear,220,2012-11-11 08:00:00
11:30 AM,91.4,66.2,43,29.98,-9999.0,ENE,5.8,-,N/A,,Clear,70,2012-11-11 08:30:00
12:00 PM,89.6,69.8,52,29.98,-9999.0,East,5.8,-,N/A,,Clear,80,2012-11-11 09:00:00
12:30 PM,91.4,64.4,41,29.95,-9999.0,East,5.8,-,N/A,,Clear,100,2012-11-11 09:30:00
1:00 PM,91.4,64.4,41,29.95,-9999.0,East,6.9,-,N/A,,Clear,90,2012-11-11 10:00:00
1:30 PM,91.4,51.8,26,29.95,-9999.0,NE,5.8,-,N/A,,Clear,40,2012-11-11 10:30:00
2:00 PM,89.6,53.6,29,29.98,-9999.0,NE,8.1,-,N/A,,Clear,50,2012-11-11 11:00:00
2:30 PM,91.4,51.8,26,29.95,-9999.0,NE,8.1,-,N/A,,Clear,40,2012-11-11 11:30:00
3:00 PM,90,51,17,29.96,9,NE,8.1,,,,Scattered Clouds,50,2012-11-11 12:00:00
3:00 PM,89.6,51.8,27,29.95,-9999.0,NE,8.1,-,N/A,,Clear,50,2012-11-11 12:00:00
3:30 PM,89.6,53.6,29,29.95,-9999.0,NNE,5.8,-,N/A,,Clear,20,2012-11-11 12:30:00
4:00 PM,89.6,59.0,36,29.95,-9999.0,NE,6.9,-,N/A,,Clear,40,2012-11-11 13:00:00
4:30 PM,86.0,60.8,43,29.98,6.2,NNE,6.9,-,N/A,,Scattered Clouds,30,2012-11-11 13:30:00
5:00 PM,84.2,66.2,55,29.98,-9999.0,North,8.1,-,N/A,,Clear,10,2012-11-11 14:00:00
5:30 PM,84.2,69.8,62,29.98,-9999.0,NNE,5.8,-,N/A,,Clear,20,2012-11-11 14:30:00
6:00 PM,84.2,73.4,70,29.98,-9999.0,NNE,6.9,-,N/A,,Clear,30,2012-11-11 15:00:00
6:30 PM,82.4,73.4,74,29.98,-9999.0,NNE,4.6,-,N/A,,Clear,20,2012-11-11 15:30:00
7:00 PM,82.4,71.6,70,29.98,-9999.0,NNE,4.6,-,N/A,,Clear,20,2012-11-11 16:00:00
7:30 PM,82.4,69.8,66,30.01,-9999.0,NNE,5.8,-,N/A,,Clear,20,2012-11-11 16:30:00
8:00 PM,82.4,71.6,70,30.01,-9999.0,North,5.8,-,N/A,,Clear,10,2012-11-11 17:00:00
8:30 PM,82.4,71.6,70,30.01,5.0,North,6.9,-,N/A,,Unknown,360,2012-11-11 17:30:00
9:00 PM,80.6,71.6,74,30.01,5.0,North,6.9,-,N/A,,Unknown,360,2012-11-11 18:00:00
9:30 PM,80.6,71.6,74,30.01,5.0,North,5.8,-,N/A,,Unknown,350,2012-11-11 18:30:00
10:00 PM,80.6,73.4,79,29.98,5.0,North,4.6,-,N/A,,Unknown,360,2012-11-11 19:00:00
10:30 PM,80.6,71.6,74,29.98,5.0,Variable,2.3,-,N/A,,Unknown,0,2012-11-11 19:30:00
11:00 PM,80.6,73.4,79,29.98,5.0,Variable,2.3,-,N/A,,Unknown,0,2012-11-11 20:00:00
11:30 PM,78.8,71.6,78,29.98,5.0,Variable,2.3,-,N/A,,Unknown,0,2012-11-11 20:30:00